Hourly Weather Ochakov

Today, 15 July, Wednesday

Time Temperature Precipitation Wind Pressure Humidity
00:00 +18°C° 0 mm 4 mps 760 mmHg 60%
01:00 +17°C° 0 mm 4 mps 760 mmHg 63%
02:00 +17°C° 0 mm 3 mps 760 mmHg 64%
03:00 +16°C° 0 mm 3 mps 760 mmHg 66%
04:00 +16°C° 0 mm 3 mps 760 mmHg 69%
05:00 +15°C° 0 mm 4 mps 760 mmHg 71%
06:00 +18°C° 0 mm 3 mps 760 mmHg 65%
07:00 +20°C° 0 mm 3 mps 760 mmHg 59%
08:00 +21°C° 0 mm 3 mps 760 mmHg 53%
09:00 +24°C° 0 mm 3 mps 760 mmHg 48%
10:00 +25°C° 0 mm 3 mps 760 mmHg 44%
11:00 +26°C° 0 mm 3 mps 760 mmHg 39%
12:00 +26°C° 0 mm 3 mps 760 mmHg 39%
13:00 +26°C° 0 mm 4 mps 760 mmHg 39%
14:00 +27°C° 0 mm 5 mps 760 mmHg 39%
15:00 +26°C° 0 mm 5 mps 760 mmHg 41%
16:00 +26°C° 0 mm 5 mps 760 mmHg 43%
17:00 +26°C° 0 mm 5 mps 760 mmHg 45%
18:00 +25°C° 0 mm 5 mps 760 mmHg 51%
19:00 +23°C° 0 mm 5 mps 760 mmHg 56%
20:00 +21°C° 0 mm 5 mps 760 mmHg 62%
21:00 +21°C° 0 mm 5 mps 760 mmHg 64%
22:00 +20°C° 0 mm 4 mps 760 mmHg 66%
23:00 +20°C° 0 mm 4 mps 760 mmHg 68%

Tomorrow, 16 July, Thursday

Time Temperature Precipitation Wind Pressure Humidity
00:00 +19°C° 0 mm 4 mps 760 mmHg 68%
01:00 +19°C° 0 mm 3 mps 760 mmHg 68%
02:00 +18°C° 0 mm 3 mps 760 mmHg 68%
03:00 +18°C° 0 mm 3 mps 760 mmHg 68%
04:00 +18°C° 0 mm 2 mps 760 mmHg 68%
05:00 +18°C° 0 mm 2 mps 759 mmHg 69%
06:00 +20°C° 0 mm 2 mps 759 mmHg 63%
07:00 +22°C° 0 mm 1 mps 760 mmHg 57%
08:00 +24°C° 0 mm 1 mps 760 mmHg 51%
09:00 +25°C° 0 mm 1 mps 759 mmHg 48%
10:00 +26°C° 0 mm 1 mps 759 mmHg 44%
11:00 +27°C° 0 mm 2 mps 759 mmHg 41%
12:00 +27°C° 0 mm 2 mps 759 mmHg 41%
13:00 +27°C° 0 mm 3 mps 759 mmHg 40%
14:00 +28°C° 0 mm 3 mps 758 mmHg 40%
15:00 +27°C° 0 mm 3 mps 758 mmHg 40%
16:00 +27°C° 0 mm 3 mps 758 mmHg 41%
17:00 +27°C° 0 mm 3 mps 757 mmHg 42%
18:00 +26°C° 0 mm 3 mps 757 mmHg 45%
19:00 +25°C° 0 mm 3 mps 757 mmHg 48%
20:00 +24°C° 0 mm 2 mps 758 mmHg 52%
21:00 +23°C° 0 mm 2 mps 758 mmHg 53%
22:00 +23°C° 0 mm 2 mps 758 mmHg 54%
23:00 +21°C° 0 mm 2 mps 758 mmHg 55%

Day after tomorrow, 17 July, Friday

Time Temperature Precipitation Wind Pressure Humidity
00:00 +21°C° 0 mm 3 mps 758 mmHg 56%
01:00 +21°C° 0 mm 3 mps 757 mmHg 58%
02:00 +20°C° 0 mm 3 mps 757 mmHg 60%
03:00 +20°C° 0 mm 3 mps 757 mmHg 61%
04:00 +20°C° 0 mm 4 mps 757 mmHg 63%
05:00 +20°C° 0 mm 4 mps 757 mmHg 65%
06:00 +22°C° 0 mm 3 mps 758 mmHg 57%
07:00 +25°C° 0 mm 3 mps 758 mmHg 50%
08:00 +27°C° 0 mm 3 mps 758 mmHg 42%
09:00 +28°C° 0 mm 2 mps 758 mmHg 39%
10:00 +29°C° 0 mm 2 mps 758 mmHg 35%
11:00 +30°C° 0 mm 2 mps 758 mmHg 31%
12:00 +30°C° 0 mm 2 mps 758 mmHg 32%
13:00 +30°C° 0 mm 2 mps 758 mmHg 32%
14:00 +30°C° 0 mm 3 mps 757 mmHg 32%
15:00 +30°C° 0 mm 3 mps 757 mmHg 33%
16:00 +30°C° 0 mm 2 mps 757 mmHg 33%
17:00 +30°C° 0 mm 2 mps 757 mmHg 34%
18:00 +29°C° 0 mm 2 mps 757 mmHg 37%
19:00 +27°C° 0 mm 2 mps 757 mmHg 40%
20:00 +26°C° 0 mm 2 mps 758 mmHg 43%
21:00 +26°C° 0 mm 2 mps 758 mmHg 45%
22:00 +25°C° 0 mm 3 mps 758 mmHg 47%
23:00 +24°C° 0 mm 3 mps 758 mmHg 48%

18 July, Saturday

Time Temperature Precipitation Wind Pressure Humidity
00:00 +23°C° 0 mm 4 mps 758 mmHg 50%
01:00 +22°C° 0 mm 4 mps 758 mmHg 52%
02:00 +22°C° 0 mm 4 mps 758 mmHg 54%
03:00 +21°C° 0 mm 4 mps 758 mmHg 57%
04:00 +21°C° 0 mm 4 mps 759 mmHg 60%
05:00 +21°C° 0 mm 4 mps 759 mmHg 63%
06:00 +23°C° 0 mm 4 mps 759 mmHg 58%
07:00 +26°C° 0 mm 4 mps 759 mmHg 54%
08:00 +28°C° 0 mm 4 mps 759 mmHg 49%
09:00 +29°C° 0 mm 4 mps 759 mmHg 44%
10:00 +30°C° 0 mm 4 mps 759 mmHg 40%
11:00 +31°C° 0 mm 3 mps 759 mmHg 35%
12:00 +31°C° 0 mm 3 mps 759 mmHg 35%
13:00 +31°C° 0 mm 3 mps 759 mmHg 35%
14:00 +31°C° 0 mm 3 mps 759 mmHg 35%
15:00 +31°C° 0 mm 3 mps 759 mmHg 36%
16:00 +31°C° 0 mm 3 mps 759 mmHg 37%
17:00 +31°C° 0 mm 3 mps 758 mmHg 38%
18:00 +29°C° 0 mm 3 mps 759 mmHg 44%
19:00 +27°C° 0 mm 2 mps 759 mmHg 51%
20:00 +26°C° 0 mm 2 mps 759 mmHg 57%
21:00 +25°C° 0 mm 2 mps 759 mmHg 58%
22:00 +25°C° 0 mm 2 mps 759 mmHg 60%
23:00 +25°C° 0 mm 2 mps 759 mmHg 62%

19 July, Sunday

Time Temperature Precipitation Wind Pressure Humidity
00:00 +25°C° 0 mm 3 mps 759 mmHg 62%
01:00 +24°C° 0 mm 3 mps 759 mmHg 63%
02:00 +24°C° 0 mm 3 mps 759 mmHg 63%
03:00 +23°C° 0 mm 4 mps 759 mmHg 65%
04:00 +22°C° 0 mm 4 mps 759 mmHg 67%
05:00 +22°C° 0 mm 5 mps 759 mmHg 68%
06:00 +25°C° 0 mm 5 mps 759 mmHg 64%
07:00 +27°C° 0 mm 5 mps 759 mmHg 59%
08:00 +28°C° 0 mm 5 mps 759 mmHg 54%
09:00 +29°C° 0 mm 5 mps 759 mmHg 49%
10:00 +30°C° 0 mm 5 mps 759 mmHg 44%
11:00 +32°C° 0 mm 5 mps 758 mmHg 39%
12:00 +32°C° 0 mm 4 mps 758 mmHg 39%
13:00 +32°C° 0 mm 4 mps 758 mmHg 38%
14:00 +31°C° 0 mm 3 mps 758 mmHg 38%
15:00 +31°C° 0 mm 3 mps 757 mmHg 40%
16:00 +30°C° 0 mm 2 mps 757 mmHg 41%
17:00 +30°C° 0 mm 2 mps 757 mmHg 43%
18:00 +29°C° 0 mm 2 mps 757 mmHg 44%
19:00 +29°C° 0 mm 2 mps 757 mmHg 46%
20:00 +28°C° 0 mm 1 mps 757 mmHg 47%
21:00 +27°C° 0 mm 2 mps 757 mmHg 49%
22:00 +26°C° 0 mm 2 mps 757 mmHg 52%
23:00 +26°C° 0 mm 2 mps 757 mmHg 54%

20 July, Monday

Time Temperature Precipitation Wind Pressure Humidity
00:00 +25°C° 0 mm 2 mps 757 mmHg 55%
01:00 +25°C° 0 mm 2 mps 757 mmHg 56%
02:00 +24°C° 0 mm 2 mps 756 mmHg 57%
03:00 +24°C° 0 mm 2 mps 756 mmHg 57%
04:00 +24°C° 0 mm 2 mps 756 mmHg 58%
05:00 +23°C° 0 mm 2 mps 756 mmHg 58%
06:00 +25°C° 0 mm 2 mps 756 mmHg 53%
07:00 +27°C° 0 mm 2 mps 756 mmHg 48%
08:00 +28°C° 0 mm 2 mps 756 mmHg 42%
09:00 +30°C° 0 mm 2 mps 755 mmHg 39%
10:00 +31°C° 0 mm 2 mps 755 mmHg 35%
11:00 +32°C° 0 mm 2 mps 755 mmHg 32%
12:00 +32°C° 0 mm 2 mps 755 mmHg 31%
13:00 +33°C° 0 mm 3 mps 754 mmHg 30%
14:00 +34°C° 0 mm 4 mps 754 mmHg 30%
15:00 +33°C° 0 mm 3 mps 754 mmHg 31%
16:00 +33°C° 0 mm 3 mps 754 mmHg 33%
17:00 +31°C° 0 mm 3 mps 754 mmHg 34%
18:00 +29°C° 0.1 mm 4 mps 754 mmHg 46%
19:00 +26°C° 0.1 mm 6 mps 754 mmHg 58%
20:00 +23°C° 0.1 mm 7 mps 754 mmHg 69%
21:00 +22°C° 0.1 mm 7 mps 754 mmHg 71%
22:00 +22°C° 0.1 mm 6 mps 754 mmHg 73%
23:00 +22°C° 0.1 mm 5 mps 754 mmHg 75%
Show more